Terminal Aerodrome Forecast
Issued by NWS Atlanta, GA

Home | Current Version | Previous Version | Text Only | Print | Product List | Glossary On
Versions: 1 2 3 4 5 6 7 8 9 10 11 12 13 14 15 16 17 18 19 20 21 22 23 24 25 26 27
000
FTAK31 PAJN 070500
TAFAHN
TAF
PAHN 070522Z 0706/0806 VRB05KT P6SM BKN200
     FM071300 09005KT P6SM BKN100
     FM071900 13012KT P6SM BKN070 OVC100
     FM080100 13011KT P6SM VCSH BKN060 OVC090
      AMD LTD TO CLD VIS AND WIND=

USA.gov is the U.S. government's official web portal to all federal, state and local government web resources and services.